Date String (YYYY-MM-DD hh:mm:ss) UTC,Instrument flags,Ambient pressure (hPa),Sample flow (lpm),Bypass flow (lpm),Sample temperature (°C),Ambient temperature (°C),ASC tube jacket temperature (°C),LED temperature (°C),Box temperature (°C),Sample RH (%),Span deviation,Mass concentration (μg/m³),Mass concentration (μg/m³),Mass concentration (μg/m³)
DateTimeUTC,F1_M11,P_M11,Q1_M11,Q2_M11,T1_M11,T2_M11,T3_M11,T4_M11,T5_M11,U1_M11,ZSPAN_M11,X0_M11,X2_M11,X1_M11
2022-10-31 00:00:00,,0825.4,4.98,0.00,30.2,28.9,00.0,39.0,32.0,06.5,0000.0,0010.56,0004.80,0004.46
2022-10-31 00:01:00,,0825.3,5.00,0.00,30.2,28.9,00.0,39.0,32.0,06.5,0000.0,0010.55,0004.80,0004.45
2022-10-31 00:02:00,,0825.4,5.00,0.00,30.3,28.9,00.0,39.0,32.0,06.5,0000.0,0010.57,0004.82,0004.44
2022-10-31 00:03:00,,0825.4,5.00,0.00,30.3,28.9,00.0,39.0,32.1,06.5,0000.0,0010.21,0004.81,0004.42
2022-10-31 00:04:00,,0825.4,5.00,0.00,30.3,28.9,00.0,39.0,32.1,06.5,0000.0,0009.99,0004.76,0004.40
2022-10-31 00:05:00,,0825.4,5.00,0.00,30.3,29.0,00.0,39.0,32.1,06.5,0000.0,0010.31,0004.72,0004.38
2022-10-31 00:06:00,,0825.4,5.01,0.00,30.3,29.0,00.0,39.0,32.1,06.5,0000.0,0009.97,0004.69,0004.36
2022-10-31 00:07:00,,0825.4,5.00,0.00,30.3,28.9,00.0,39.0,32.1,06.5,0000.0,0010.07,0004.69,0004.35
2022-10-31 00:08:00,,0825.4,5.00,0.00,30.3,28.9,00.0,39.0,32.1,06.5,0000.0,0010.28,0004.71,0004.35
2022-10-31 00:09:00,,0825.4,5.01,0.00,30.3,28.9,00.0,39.1,32.1,06.5,0000.0,0009.94,0004.70,0004.33
2022-10-31 00:10:00,,0825.4,4.98,0.00,30.3,28.9,00.0,39.1,32.1,06.5,0000.0,0009.56,0004.69,0004.31
2022-10-31 00:11:00,,0825.3,5.02,0.00,30.3,28.9,00.0,39.1,32.1,06.5,0000.0,0010.75,0004.66,0004.29
2022-10-31 00:12:00,,0825.3,5.01,0.00,30.3,28.9,00.0,39.1,32.1,06.4,0000.0,0011.66,0004.67,0004.29
2022-10-31 00:13:00,,0825.4,4.98,0.00,30.3,28.9,00.0,39.1,32.1,06.5,0000.0,0011.90,0004.68,0004.28
2022-10-31 00:14:00,,0825.4,5.01,0.00,30.3,28.9,00.0,39.1,32.1,06.5,0000.0,0011.96,0004.70,0004.28
2022-10-31 00:15:00,,0825.4,5.00,0.00,30.3,28.9,00.0,39.1,32.1,06.5,0000.0,0012.49,0004.73,0004.28
2022-10-31 00:16:00,,0825.4,5.00,0.00,30.3,28.9,00.0,39.1,32.1,06.5,0000.0,0012.33,0004.74,0004.28
2022-10-31 00:17:00,,0825.4,5.00,0.00,30.3,28.8,00.0,39.1,32.1,06.6,0000.0,0012.11,0004.76,0004.27
2022-10-31 00:18:00,,0825.4,5.00,0.00,30.3,28.8,00.0,39.1,32.0,06.6,0000.0,0012.16,0004.77,0004.26
2022-10-31 00:19:00,,0825.4,5.00,0.00,30.3,28.8,00.0,39.1,32.0,06.7,0000.0,0011.90,0004.72,0004.24
2022-10-31 00:20:00,,0825.4,5.00,0.00,30.3,28.9,00.0,39.1,32.1,06.8,0000.0,0011.85,0004.72,0004.23
2022-10-31 00:21:00,,0825.4,4.99,0.00,30.3,28.9,00.0,39.1,32.0,06.9,0000.0,0011.74,0004.72,0004.21
2022-10-31 00:22:00,,0825.4,5.01,0.00,30.3,28.9,00.0,39.1,32.0,06.9,0000.0,0010.46,0004.72,0004.19
2022-10-31 00:23:00,,0825.5,5.00,0.00,30.3,28.9,00.0,39.1,32.0,06.9,0000.0,0009.51,0004.69,0004.16
2022-10-31 00:24:00,,0825.5,4.98,0.00,30.3,28.9,00.0,39.2,32.0,06.9,0000.0,0009.22,0004.62,0004.13
2022-10-31 00:25:00,,0825.4,5.01,0.00,30.3,28.8,00.0,39.1,32.0,06.9,0000.0,0009.19,0004.57,0004.09
2022-10-31 00:26:00,,0825.4,5.01,0.00,30.3,28.7,00.0,39.1,32.0,06.9,0000.0,0008.60,0004.53,0004.07
2022-10-31 00:27:00,,0825.4,5.01,0.00,30.3,28.7,00.0,39.1,32.0,06.9,0000.0,0008.59,0004.49,0004.05
2022-10-31 00:28:00,,0825.5,5.00,0.00,30.3,28.7,00.0,39.1,32.0,07.0,0000.0,0008.58,0004.45,0004.03
2022-10-31 00:29:00,,0825.5,4.98,0.00,30.3,28.6,00.0,39.1,32.0,06.9,0000.0,0008.42,0004.42,0004.01
2022-10-31 00:30:00,,0825.5,5.01,0.00,30.2,28.6,00.0,39.1,32.0,06.9,0000.0,0008.95,0004.44,0004.01
2022-10-31 00:31:00,,0825.4,5.01,0.00,30.2,28.6,00.0,39.1,31.9,06.9,0000.0,0009.16,0004.42,0004.02
2022-10-31 00:32:00,,0825.5,5.01,0.00,30.2,28.6,00.0,39.1,31.9,07.0,0000.0,0009.52,0004.45,0004.03
2022-10-31 00:33:00,,0825.5,5.00,0.00,30.2,28.6,00.0,39.1,31.9,07.1,0000.0,0009.71,0004.46,0004.04
2022-10-31 00:34:00,,0825.4,4.98,0.00,30.2,28.6,00.0,39.1,31.9,07.1,0000.0,0009.81,0004.47,0004.04
2022-10-31 00:35:00,,0825.5,5.00,0.00,30.2,28.6,00.0,39.1,31.9,07.1,0000.0,0009.63,0004.46,0004.04
2022-10-31 00:36:00,,0825.5,5.02,0.00,30.2,28.6,00.0,39.1,31.9,07.1,0000.0,0009.78,0004.46,0004.05
2022-10-31 00:37:00,,0825.5,5.00,0.00,30.2,28.6,00.0,39.1,31.9,07.1,0000.0,0009.83,0004.48,0004.04
2022-10-31 00:38:00,,0825.5,4.99,0.00,30.2,28.5,00.0,39.1,31.9,07.1,0000.0,0010.07,0004.50,0004.04
2022-10-31 00:39:00,,0825.4,5.00,0.00,30.2,28.5,00.0,39.1,31.9,07.2,0000.0,0010.22,0004.52,0004.04
2022-10-31 00:40:00,,0825.5,5.01,0.00,30.2,28.6,00.0,39.1,31.9,07.2,0000.0,0011.27,0004.53,0004.04
2022-10-31 00:41:00,,0825.5,5.00,0.00,30.2,28.6,00.0,39.1,31.9,07.2,0000.0,0010.83,0004.52,0004.04
2022-10-31 00:42:00,,0825.5,5.00,0.00,30.1,28.5,00.0,39.0,31.9,07.2,0000.0,0010.59,0004.53,0004.03
2022-10-31 00:43:00,,0825.5,5.00,0.00,30.1,28.4,00.0,39.0,31.9,07.2,0000.0,0010.09,0004.47,0004.02
2022-10-31 00:44:00,,0825.5,5.00,0.00,30.1,28.4,00.0,39.0,31.8,07.3,0000.0,0009.85,0004.42,0004.00
2022-10-31 00:45:00,,0825.5,4.98,0.00,30.1,28.4,00.0,39.0,31.8,07.3,0000.0,0009.55,0004.39,0004.00
2022-10-31 00:46:00,,0825.5,5.01,0.00,30.1,28.4,00.0,39.0,31.8,07.3,0000.0,0010.10,0004.40,0004.00
2022-10-31 00:47:00,,0825.5,5.01,0.00,30.1,28.4,00.0,39.0,31.8,07.3,0000.0,0010.20,0004.41,0004.01
2022-10-31 00:48:00,,0825.5,5.00,0.00,30.1,28.4,00.0,39.0,31.7,07.3,0000.0,0010.07,0004.39,0004.01
2022-10-31 00:49:00,,0825.5,5.00,0.00,30.1,28.4,00.0,39.0,31.8,07.3,0000.0,0010.25,0004.37,0004.02
2022-10-31 00:50:00,,0825.5,4.99,0.00,30.0,28.3,00.0,39.0,31.7,07.3,0000.0,0011.89,0004.36,0004.02
2022-10-31 00:51:00,,0825.5,5.00,0.00,30.0,28.3,00.0,39.0,31.7,07.3,0000.0,0011.37,0004.37,0004.03
2022-10-31 00:52:00,,0825.5,5.00,0.00,30.0,28.3,00.0,38.9,31.7,07.4,0000.0,0011.51,0004.38,0004.04
2022-10-31 00:53:00,,0825.5,5.00,0.00,30.0,28.3,00.0,38.9,31.7,07.4,0000.0,0011.54,0004.40,0004.06
2022-10-31 00:54:00,,0825.5,5.00,0.00,30.0,28.3,00.0,38.9,31.7,07.4,0000.0,0011.59,0004.41,0004.07
2022-10-31 00:55:00,,0825.5,5.00,0.00,30.0,28.3,00.0,38.9,31.7,07.4,0000.0,0012.04,0004.43,0004.08
2022-10-31 00:56:00,,0825.5,5.01,0.00,30.0,28.3,00.0,38.9,31.7,07.4,0000.0,0012.09,0004.44,0004.10
2022-10-31 00:57:00,,0825.5,5.00,0.00,30.0,28.3,00.0,38.9,31.7,07.4,0000.0,0011.73,0004.47,0004.11
2022-10-31 00:58:00,,0825.5,5.00,0.00,30.0,28.3,00.0,38.9,31.7,07.4,0000.0,0011.59,0004.49,0004.13
2022-10-31 00:59:00,,0825.5,5.00,0.00,30.0,28.3,00.0,38.9,31.7,07.4,0000.0,0011.77,0004.52,0004.15
